User: anonymous   Login
Location: Unspecified
(0.0000°N, 0.0000°E)
Time: 18:23:09
(UTC+00:00)
Language:

Courier 1B - Orbit

View from above orbital plane
View from above orbital plane
View from above satellite
View from above satellite

Ground track
Ground track

The orbit data is extracted from the following two-line orbital elements,

1    58U 60013A   19107.91547903 +.00000083 +00000-0 -30736-5 0  9995
2    58 028.3268 098.5546 0165037 137.9151 223.4198 13.46317365881094
Epoch (UTC): 17 April 2019 21:58:17
Eccentricity: 0.0165037
inclination: 28.3268°
perigee height: 962 km
apogee height: 1209 km
right ascension of ascending node: 98.5546°
argument of perigee: 137.9151°
revolutions per day: 13.46317365
mean anomaly at epoch: 223.4198°
orbit number at epoch: 88109

The dashed part of the orbit path shows where the satellite is in the earth's shadow,  

DLR